NOAA NWS Hourly Roundups by Site

Regional Weather Roundup for Phoenix, AZ

To Select Another Site Choose from List

Select Site:  

000
ASUS45 KPSR 170210
RWRAZ

ARIZONA HOURLY REGIONAL WEATHER ROUNDUP
NATIONAL WEATHER SERVICE PHOENIX AZ
700 PM MST WED OCT 16 2019

NOTE: FAIR INDICATES FEW OR NO CLOUDS BELOW 12,000 FEET WITH NO
SIGNIFICANT WEATHER AND/OR OBSTRUCTIONS TO VISIBILITY.

AZZ001>003-036-170300-
NORTHWEST ARIZONA

CITY           SKY/WX    TMP DP  RH WIND       PRES   REMARKS
BULLHEAD CITY  CLOUDY    86  25  10 NE3       29.77
KINGMAN        MOCLDY    71  24  17 S9        29.96S
$$

AZZ004>008-015-016-018-170300-
NORTH CENTRAL ARIZONA

CITY           SKY/WX    TMP DP  RH WIND       PRES   REMARKS
GRAND CANYON   MOCLDY    49  12  22 CALM      30.18S
WILLIAMS       CLOUDY    55  21  26 S6        30.18  HAZE
PRESCOTT       MOCLDY    65  29  25 S7        30.08R
FLAGSTAFF      MOCLDY    51  21  30 CALM      30.20S
PAYSON         PTCLDY    66  25  20 VRB3      30.10
PAGE           CLEAR     66  21  18 SW5       30.02F
$$

AZZ009>014-017-170300-
NORTHEAST ARIZONA

CITY           SKY/WX    TMP DP  RH WIND       PRES   REMARKS
WINSLOW        PTCLDY    59  17  19 CALM      30.07F
SAINT JOHNS    CLEAR     57  14  18 S3        30.10S
WINDOW ROCK    CLEAR     60  10  14 CALM      30.21R
SHOW LOW       PTCLDY    61  18  18 CALM      30.18S
$$

AZZ540-542>544-546-548-170300-
GREATER PHOENIX AREA

CITY           SKY/WX    TMP DP  RH WIND       PRES   REMARKS
PHOENIX        MOCLDY    90  30  11 NE9       29.77S
BUCKEYE        CLEAR     81  32  17 NE8       29.78
LUKE AFB       MOCLDY    81  40  22 NW6       29.77S
DEER VALLEY    MOCLDY    85  29  13 NE3       29.82R
SCOTTSDALE     MOCLDY    86  30  13 CALM      29.82S
MESA-FALCON    PTCLDY    86  34  15 E6        29.80S
MESA-GATEWAY   PTCLDY    86  30  13 E7        29.81S
CHANDLER       CLEAR     84  34  16 NE7       29.79R
$$

AZZ539-553-170300-
SOUTHWEST MARICOPA COUNTY AND PINAL COUNTY

CITY           SKY/WX    TMP DP  RH WIND       PRES   REMARKS
CASA GRANDE    MOCLDY    82  31  15 NE8       29.81R
GILA BEND      FAIR      84  24  11 NE3       29.74S
$$

AZZ503-504-507>509-170300-
SOUTHEAST ARIZONA

CITY           SKY/WX    TMP DP  RH WIND       PRES   REMARKS
TUCSON         PTCLDY    84  37  18 E12       29.89R
DAVIS-MONTHAN  PTCLDY    81  40  22 NE14      29.88
RYAN FIELD     CLEAR     84  37  18 E8        29.87R
NOGALES        PTCLDY    76  40  27 E7        29.96R
SIERRA VISTA   MOCLDY    69  40  35 SE6       30.05S
DOUGLAS        PTCLDY    72  41  32 E16       30.03S
SAFFORD        PTCLDY    77  35  21 SE14      29.98S
$$

AZZ532-170300-
SOUTHWEST ARIZONA

CITY           SKY/WX    TMP DP  RH WIND       PRES   REMARKS
YUMA           CLEAR     89  42  19 W7        29.71S
$$

CAZ041-043-047-048-061-525>527-560>570-170300-
SOUTHERN CALIFORNIA

CITY           SKY/WX    TMP DP  RH WIND       PRES   REMARKS
DOWNTOWN L.A.  MOCLDY    74  57  55 CALM      29.79F
L.A. AIRPORT   MOCLDY    69  54  58 W10       29.80S
SAN DIEGO      MOCLDY    69  65  86 W3        29.84R
BURBANK        MOCLDY    79  49  34 VRB5      29.80S
ONTARIO        MOCLDY    78  54  43 SW8       29.80R
RIVERSIDE      MOCLDY    78  49  35 W9        29.80S
PALM SPRINGS   CLOUDY    89  39  17 CALM      29.75F
EL CENTRO NAS  PTCLDY    84  34  16 CALM      29.73S
IMPERIAL       MOCLDY    85  42  22 CALM      29.71S
BLYTHE         MOCLDY    88  39  17 CALM      29.74S
NEEDLES        CLOUDY    84  29  13 S5        29.78F
$$

NVZ020-UTZ003-170300-
SOUTHERN NEVADA-UTAH

CITY           SKY/WX    TMP DP  RH WIND       PRES   REMARKS
LAS VEGAS      CLOUDY    81  26  13 SE5       29.84F
SALT LAKE CITY MOCLDY    57  30  35 NW3       29.97R
$$

NMZ009-TXZ055-170300-
NEW MEXICO-WEST TEXAS

CITY           SKY/WX    TMP DP  RH WIND       PRES   REMARKS
ALBUQUERQUE    CLEAR     60  17  18 SE9       30.16S
EL PASO        CLEAR     65  33  30 E6        30.13R
$$


........................KEY........................
SKY/WX - SKY CONDITION/WEATHER
TMP    - TEMPERATURE IN FAHRENHEIT
DP     - DEW POINT IN FAHRENHEIT
RH     - RELATIVE HUMIDITY IN PERCENT
WIND   - DIRECTION AND SPEED IN MILES PER HOUR (MPH)
VRB    - VARIABLE WIND DIRECTION
PRES   - MEAN SEA LEVEL PRESSURE IN INCHES OF MERCURY
         F - FALLING PRESSURE   R - RISING PRESSURE
         S - STEADY PRESSURE
VSB    - VISIBILITY IN MILES
HX     - HEAT INDEX IN FAHRENHEIT
WCI    - WIND CHILL INDEX IN FAHRENHEIT
TC     - TEMPERATURE IN CELSIUS WHICH IS ALSO KNOWN AS
         TEMPERATURE IN CENTIGRADE
AFB    - AIR FORCE BASE
         LUKE AFB IS LUKE AIR FORCE BASE
         DAVIS-MONTHAN IS DAVIS-MONTHAN AIR FORCE BASE
NAS    - NAVAL AIR STATION
         EL CENTRO NAS IS EL CENTRO NAVAL AIR STATION
N/A    - NOT AVAILABLE



 

View Past Reports for Phoenix, AZ.

Products Courtesy of NOAA-NWS
NWS Information Parsing Script by Ken True at Saratoga Weather - Script by SE Lincoln Weather.